Weather History for Boundary Cnty AP, Bonners Fer, ID

Change the Weather History Date:

Wednesday, January 15, 2014

  Actual Average (KSZT) Record (KSZT)
Temperature  
Mean Temperature 37 °F -  
Max Temperature 44 °F 34 °F - (-1)
Min Temperature 28 °F 23 °F - (-1)
Degree Days  
Heating Degree Days 28    
Moisture  
Dew Point 31 °F    
Average Humidity 80    
Maximum Humidity 100    
Minimum Humidity 61    
Precipitation  
Precipitation 0.00 in - - ()
Sea Level Pressure  
Sea Level Pressure 30.40 in    
Wind  
Wind Speed 5 mph (SW)    
Max Wind Speed 13 mph    
Max Gust Speed 21 mph    
Visibility 10 miles    
Events      
Averages and records for this station are not official NWS values.
T = Trace of Precipitation, MM = Missing Value Source: NWS Daily Summary

Daily Weather History Graph

Daily Weather History Graph

Search for Another Location

Airport:

Trip Planner

Search our weather history database for the weather conditions in past years. The results will help you decide how hot, cold, wet, or windy it might be!

Date:

Astronomy

Jan. 15, 2014 Rise Set
Actual Time 7:32 AM PST 4:17 PM PST
Civil Twilight 6:57 AM PST 4:52 PM PST
Nautical Twilight 6:17 AM PST 5:31 PM PST
Astronomical Twilight 5:40 AM PST 6:09 PM PST
Moon 4:24 PM PST (1/15) 6:47 AM PST (1/15)
Length of Visible Light 9h 55m
Length of Day
8h 44m
Full, 100% of the Moon is Illuminated
Jan 15
Full
Jan 15
Full
Jan 23
Last Quarter
Jan 30
New
Feb 6
First Quarter

Hourly Weather History & Observations

Time (PST) Temp. Windchill Dew Point Humidity Pressure Visibility Wind Dir Wind Speed Gust Speed Precip Events Conditions
12:15 AM 37.4 °F 33.8 °F 32.0 °F 81% 30.35 in 10.0 mi SW 4.6 mph - N/A   Clear
12:35 AM 39.2 °F - 32.0 °F 75% 30.35 in 10.0 mi Calm Calm - N/A   Partly Cloudy
12:55 AM 39.2 °F 33.6 °F 32.0 °F 75% 30.34 in 10.0 mi SW 8.1 mph - N/A   Partly Cloudy
1:10 AM 39.2 °F 33.0 °F 32.0 °F 75% 30.33 in 10.0 mi SSW 9.2 mph - N/A   Partly Cloudy
1:30 AM 39.2 °F 32.5 °F 32.0 °F 75% 30.32 in 10.0 mi SW 10.4 mph 16.1 mph N/A   Clear
1:50 AM 39.2 °F 33.6 °F 32.0 °F 75% 30.32 in 10.0 mi SSW 8.1 mph - N/A   Clear
2:10 AM 39.2 °F 32.0 °F 32.0 °F 75% 30.34 in 10.0 mi SW 11.5 mph 19.6 mph N/A   Clear
2:30 AM 39.2 °F 34.2 °F 32.0 °F 75% 30.36 in 10.0 mi SW 6.9 mph 20.7 mph N/A   Clear
2:50 AM 39.2 °F 33.0 °F 32.0 °F 75% 30.36 in 10.0 mi WSW 9.2 mph - N/A   Clear
3:10 AM 39.2 °F 32.5 °F 32.0 °F 75% 30.36 in 10.0 mi SW 10.4 mph 19.6 mph N/A   Clear
3:30 AM 39.2 °F 32.0 °F 32.0 °F 75% 30.35 in 10.0 mi SSW 11.5 mph 18.4 mph N/A   Clear
3:50 AM 37.4 °F 32.1 °F 32.0 °F 81% 30.35 in 10.0 mi SSW 6.9 mph - N/A   Clear
4:10 AM 37.4 °F 31.4 °F 32.0 °F 81% 30.36 in 10.0 mi SSW 8.1 mph - N/A   Clear
4:30 AM 37.4 °F 30.8 °F 32.0 °F 81% 30.35 in 10.0 mi SW 9.2 mph 17.3 mph N/A   Clear
4:50 AM 37.4 °F 29.3 °F 32.0 °F 81% 30.37 in 10.0 mi WSW 12.7 mph - N/A   Clear
5:10 AM 37.4 °F 31.4 °F 32.0 °F 81% 30.36 in 10.0 mi SW 8.1 mph 16.1 mph N/A   Clear
5:30 AM 37.4 °F 31.4 °F 32.0 °F 81% 30.35 in 10.0 mi SW 8.1 mph 16.1 mph N/A   Clear
5:50 AM 37.4 °F 34.9 °F 32.0 °F 81% 30.37 in 10.0 mi South 3.5 mph - N/A   Clear
6:10 AM 37.4 °F 33.8 °F 32.0 °F 81% 30.37 in 10.0 mi SW 4.6 mph - N/A   Clear
6:30 AM 35.6 °F 32.8 °F 32.0 °F 87% 30.37 in 10.0 mi SSW 3.5 mph - N/A   Clear
6:50 AM 35.6 °F 31.7 °F 32.0 °F 87% 30.37 in 10.0 mi SSW 4.6 mph - N/A   Clear
7:10 AM 35.6 °F - 32.0 °F 87% 30.38 in 10.0 mi Calm Calm - N/A   Clear
7:30 AM 35.6 °F 31.7 °F 32.0 °F 87% 30.37 in 10.0 mi South 4.6 mph - N/A   Partly Cloudy
7:50 AM 33.8 °F - 32.0 °F 93% 30.38 in 10.0 mi Calm Calm - N/A   Clear
8:10 AM 33.8 °F - 32.0 °F 93% 30.39 in 10.0 mi Calm Calm - N/A   Clear
8:35 AM 32.0 °F - 30.2 °F 93% 30.40 in 10.0 mi Calm Calm - N/A   Clear
8:50 AM 35.6 °F - 32.0 °F 87% 30.40 in 10.0 mi Calm Calm - N/A   Clear
9:10 AM 37.4 °F - 32.0 °F 81% 30.41 in 10.0 mi Calm Calm - N/A   Clear
9:30 AM 37.4 °F - 32.0 °F 81% 30.41 in 10.0 mi Calm Calm - N/A   Clear
9:50 AM 37.4 °F - 32.0 °F 81% 30.41 in 10.0 mi Calm Calm - N/A   Clear
10:10 AM 37.4 °F - 32.0 °F 81% 30.41 in 10.0 mi Calm Calm - N/A   Clear
10:30 AM 39.2 °F 35.9 °F 32.0 °F 75% 30.41 in 10.0 mi South 4.6 mph - N/A   Clear
10:50 AM 39.2 °F 37.0 °F 32.0 °F 75% 30.41 in 10.0 mi SE 3.5 mph - N/A   Clear
11:10 AM 39.2 °F 37.0 °F 32.0 °F 75% 30.40 in 10.0 mi SE 3.5 mph - N/A   Clear
11:30 AM 41.0 °F 39.0 °F 32.0 °F 70% 30.40 in 10.0 mi ENE 3.5 mph - N/A   Clear
11:50 AM 41.0 °F - 32.0 °F 70% 30.39 in 10.0 mi Calm Calm - N/A   Clear
12:10 PM 41.0 °F - 32.0 °F 70% 30.39 in 10.0 mi Calm Calm - N/A   Clear
12:30 PM 42.8 °F - 32.0 °F 66% 30.40 in 10.0 mi Calm Calm - N/A   Clear
12:50 PM 42.8 °F - 32.0 °F 66% 30.40 in 10.0 mi Calm Calm - N/A   Clear
1:10 PM 42.8 °F - 32.0 °F 66% 30.40 in 10.0 mi Calm Calm - N/A   Clear
1:30 PM 44.6 °F 43.1 °F 32.0 °F 61% 30.40 in 10.0 mi WSW 3.5 mph - N/A   Clear
1:50 PM 44.6 °F 42.2 °F 32.0 °F 61% 30.40 in 10.0 mi WSW 4.6 mph - N/A   Clear
2:10 PM 44.6 °F 40.7 °F 32.0 °F 61% 30.39 in 10.0 mi SW 6.9 mph - N/A   Clear
2:30 PM 42.8 °F 38.0 °F 32.0 °F 66% 30.39 in 10.0 mi WSW 8.1 mph 16.1 mph N/A   Clear
2:50 PM 41.0 °F 38.0 °F 32.0 °F 70% 30.40 in 10.0 mi SSW 4.6 mph - N/A   Clear
3:10 PM 41.0 °F 37.1 °F 32.0 °F 70% 30.40 in 10.0 mi SW 5.8 mph - N/A   Clear
3:30 PM 41.0 °F 35.8 °F 32.0 °F 70% 30.41 in 10.0 mi WSW 8.1 mph - N/A   Clear
3:50 PM 41.0 °F 35.8 °F 32.0 °F 70% 30.42 in 10.0 mi SW 8.1 mph - N/A   Clear
4:10 PM 39.2 °F 33.6 °F 32.0 °F 75% 30.43 in 10.0 mi WSW 8.1 mph - N/A   Clear
4:30 PM 39.2 °F 35.0 °F 32.0 °F 75% 30.43 in 10.0 mi WSW 5.8 mph - N/A   Clear
4:50 PM 39.2 °F 35.9 °F 32.0 °F 75% 30.43 in 10.0 mi SSW 4.6 mph - N/A   Clear
5:10 PM 39.2 °F 35.0 °F 32.0 °F 75% 30.42 in 10.0 mi SW 5.8 mph - N/A   Clear
5:35 PM 39.2 °F 37.0 °F 32.0 °F 75% 30.43 in 10.0 mi SSW 3.5 mph - N/A   Clear
5:50 PM 39.2 °F 37.0 °F 32.0 °F 75% 30.42 in 10.0 mi SW 3.5 mph - N/A   Clear
6:10 PM 39.2 °F 37.0 °F 32.0 °F 75% 30.43 in 10.0 mi SW 3.5 mph - N/A   Clear
6:30 PM 35.6 °F - 32.0 °F 87% 30.43 in 10.0 mi Calm Calm - N/A   Clear
6:50 PM 33.8 °F - 32.0 °F 93% 30.44 in 10.0 mi Calm Calm - N/A   Clear
7:10 PM 32.0 °F - 32.0 °F 100% 30.44 in 10.0 mi Calm Calm - N/A   Clear
7:30 PM 33.8 °F - 32.0 °F 93% 30.45 in 10.0 mi Calm Calm - N/A   Clear
7:50 PM 32.0 °F - 32.0 °F 100% 30.45 in 10.0 mi Calm Calm - N/A   Clear
8:10 PM 32.0 °F - 28.4 °F 87% 30.45 in 10.0 mi Calm Calm - N/A   Clear
8:30 PM 32.0 °F - 30.2 °F 93% 30.46 in 10.0 mi Calm Calm - N/A   Clear
8:50 PM 32.0 °F - 28.4 °F 87% 30.47 in 10.0 mi Calm Calm - N/A   Clear
9:10 PM 32.0 °F 28.7 °F 30.2 °F 93% 30.47 in 10.0 mi NE 3.5 mph - N/A   Clear
9:30 PM 30.2 °F - 28.4 °F 93% 30.48 in 10.0 mi Calm Calm - N/A   Clear
9:50 PM 32.0 °F - 30.2 °F 93% 30.48 in 10.0 mi Calm Calm - N/A   Clear
10:10 PM 30.2 °F - 28.4 °F 93% 30.49 in 9.0 mi Calm Calm - N/A   Clear
10:30 PM 30.2 °F - 28.4 °F 93% 30.49 in 7.0 mi Calm Calm - N/A   Clear
10:50 PM 30.2 °F - 28.4 °F 93% 30.49 in 8.0 mi Calm Calm - N/A   Clear
11:10 PM 30.2 °F - 28.4 °F 93% 30.49 in 9.0 mi Calm Calm - N/A   Clear
11:30 PM 30.2 °F - 28.4 °F 93% 30.49 in 9.0 mi Calm Calm - N/A   Clear
11:50 PM 28.4 °F - 26.6 °F 93% 30.49 in 10.0 mi Calm Calm - N/A   Clear